User: anonymous   Login
Location: *
(17.3280°S, 114.7300°W)
Time: 15:40:27
(UTC+00:00)
Language:

Radarsat Rocket - Orbit

View from above orbital plane
View from above orbital plane
View from above satellite
View from above satellite

Ground track
Ground track

The orbit data is extracted from the following two-line orbital elements,

1 23711U 95059B   20292.98342694 -.00000069 +00000-0 -51718-4 0  9995
2 23711 100.6281 296.3289 0368463 085.6224 330.1217 13.12721226195661
Epoch (UTC): 18 October 2020 23:36:08
Eccentricity: 0.0368463
inclination: 100.6281°
perigee height: 933 km
apogee height: 1492 km
right ascension of ascending node: 296.3289°
argument of perigee: 85.6224°
revolutions per day: 13.12721226
mean anomaly at epoch: 330.1217°
orbit number at epoch: 19566

The dashed part of the orbit path shows where the satellite is in the earth's shadow,  

DLR